Wind_Speed
11 12 15 17 19 20 22 22 21 19 18 17 15 14 12 10 8 7 9 12 14 12 5 6 7 5 9 11 7 2 5 8 3 3 8 10 9 13 11 7 8 9 9 11 12
10 11 13 15 16 18 20 21 23 24 24 23 21 19 18 16 12 11 9 14 16 13 9 3 2 3 10 13 5 5 8 5 1 5 12 12 11 12 16 12 11 10 12 13 11
10 10 12 13 14 16 17 19 20 22 23 23 24 24 23 21 16 14 16 19 17 14 9 3 1 4 10 12 4 11 14 5 6 8 11 13 13 13 16 16 16 12 11 11 11
11 11 11 12 13 14 15 16 17 19 20 22 23 22 22 20 14 17 22 20 17 15 9 3 3 6 10 11 4 7 12 9 10 10 11 11 13 13 16 17 18 16 13 12 14
13 13 12 12 13 14 14 14 15 16 18 19 21 22 22 22 18 16 22 20 19 15 12 5 3 5 9 6 5 10 13 13 11 10 10 12 14 13 15 17 19 18 18 16 15
14 14 14 13 13 13 14 14 14 14 15 17 19 22 24 23 20 18 23 21 19 17 14 7 4 1 9 6 5 13 15 17 13 10 11 10 15 10 12 14 17 17 19 21 20
17 15 14 15 14 14 14 14 14 14 14 16 17 20 25 19 23 22 24 23 21 19 15 11 10 3 6 5 8 14 20 17 12 9 10 10 14 14 9 12 14 15 16 19 20
19 18 16 15 15 14 16 14 15 15 15 15 16 20 22 24 28 26 27 26 24 21 18 15 14 7 3 7 9 17 19 19 14 12 6 5 9 13 12 8 10 13 13 15 17
23 21 19 17 16 15 17 15 16 17 17 16 16 18 19 25 28 28 29 26 26 24 22 20 18 12 4 1 12 22 19 21 17 17 10 1 7 9 15 13 9 12 13 13 14
25 24 21 20 18 15 18 16 17 18 19 18 18 16 16 24 25 28 28 28 27 27 25 24 22 17 11 5 12 19 17 24 15 14 17 12 6 7 12 16 12 10 12 14 14
27 26 24 22 20 17 18 18 19 21 22 20 13 21 22 24 26 27 28 29 30 30 28 27 25 23 17 10 6 9 11 18 13 16 17 16 14 8 8 13 14 12 11 11 13
28 28 26 24 22 20 19 20 20 21 21 23 21 20 20 24 29 29 28 29 32 32 32 30 29 28 21 17 15 13 13 16 15 7 18 24 21 13 13 8 10 9 10 11 11
28 28 27 26 23 21 21 20 20 21 23 22 25 25 23 26 33 35 33 31 32 33 35 38 32 30 25 24 21 18 17 16 19 19 13 17 23 22 18 15 13 10 11 10 9
28 28 27 27 25 23 22 21 18 18 14 20 25 28 31 28 33 38 36 34 33 34 34 34 36 22 23 26 22 21 13 13 15 17 13 16 6 26 23 20 18 12 12 12 12
29 27 27 26 26 24 23 21 17 12 3 7 19 22 31 35 28 38 39 36 34 34 35 28 23 28 23 26 25 19 9 14 17 15 16 21 8 16 12 25 22 20 11 14 12
31 28 27 26 26 27 23 22 18 11 10 6 11 26 30 37 24 29 38 37 32 28 30 23 25 23 25 22 20 13 9 7 5 17 8 17 22 13 17 13 14 16 14 13 16
32 29 29 25 25 27 26 26 20 13 11 8 12 24 31 39 28 26 41 40 36 23 31 30 23 25 25 20 20 15 7 4 3 3 6 15 15 18 11 14 16 15 10 14 14
28 30 29 24 27 29 32 34 20 18 29 8 15 24 33 38 36 23 35 43 42 34 26 27 19 30 25 27 20 16 11 8 6 5 4 9 9 7 12 13 15 9 13 11 12
28 27 25 27 28 31 37 44 41 26 24 22 11 20 30 35 35 31 37 43 44 41 22 27 24 28 32 26 23 14 11 12 8 4 2 5 7 13 12 11 4 19 20 18 12
25 25 23 31 31 33 42 49 34 33 22 26 36 9 26 39 34 37 37 42 43 42 32 8 14 24 30 28 23 20 12 10 9 5 4 5 4 8 11 2 5 16 15 14 9
22 21 25 32 32 37 50 54 37 31 27 21 17 22 18 36 43 38 31 20 39 39 31 21 16 16 26 27 27 23 19 13 9 7 8 2 3 5 10 7 8 6 8 10 8
18 19 23 29 31 43 50 51 45 34 39 23 16 21 16 30 43 33 39 37 21 35 39 33 12 15 19 24 28 27 26 20 18 9 7 5 7 4 2 1 6 9 10 11 9
16 17 22 27 30 41 44 44 47 49 34 40 26 20 20 17 28 42 29 36 20 26 39 36 21 13 14 20 19 20 20 21 17 17 20 11 6 6 4 4 4 11 14 15 11
12 10 20 24 26 27 37 37 42 47 43 40 38 35 22 18 14 28 34 26 26 34 26 34 37 32 26 22 21 21 21 18 18 20 18 21 20 18 11 10 13 19 20 17 12
11 13 16 14 24 26 24 24 35 43 45 38 50 38 40 29 22 16 28 29 24 26 39 32 37 39 38 36 28 17 27 25 22 16 21 22 26 24 20 17 19 24 23 19 16
11 15 17 16 16 21 29 21 19 38 41 51 46 38 43 41 36 23 19 19 10 17 32 40 36 35 40 31 33 35 30 26 24 19 20 23 30 26 21 21 21 21 22 20 17
13 15 16 17 15 10 18 28 19 29 45 44 46 46 33 45 40 37 30 20 15 15 14 21 32 33 29 36 39 36 41 38 36 26 18 18 29 27 20 24 21 22 26 24 21
Wind_Direction
243 240 236 234 234 236 237 239 241 241 240 237 235 236 239 241 228 189 183 186 186 188 205 202 222 287 335 358 354 308 251 227 220 112 70 67 37 45 62 88 122 115 122 139 137
251 247 244 240 238 238 239 237 236 237 240 243 241 239 241 244 241 199 209 199 199 201 192 198 280 310 358 19 40 230 219 239 236 109 70 68 59 57 73 83 104 109 113 123 128
262 254 250 247 243 240 240 242 241 236 234 236 238 238 240 242 246 187 212 203 203 206 199 172 283 331 6 23 120 211 197 218 171 112 62 62 79 72 78 89 94 87 98 106 114
270 264 257 253 250 247 242 241 241 240 236 233 233 233 233 232 230 206 208 203 208 207 196 198 275 4 20 21 167 188 189 198 142 89 64 71 83 88 82 85 88 97 100 106 118
272 269 265 258 255 252 248 245 241 238 237 233 230 228 226 223 198 200 205 206 208 204 194 205 234 16 38 22 170 180 186 183 152 87 66 78 92 99 89 88 86 87 91 96 109
269 269 268 264 258 255 250 247 244 239 236 232 228 224 222 215 198 202 202 204 207 200 197 210 224 0 36 59 175 184 169 170 146 106 69 66 71 95 105 97 94 90 90 96 103
265 266 266 266 261 256 252 246 242 240 237 235 228 222 218 197 199 196 200 202 206 200 197 212 218 192 17 85 200 183 165 168 158 154 98 53 70 93 115 110 103 97 92 93 102
261 262 263 263 263 260 256 247 242 238 237 236 231 224 215 204 198 196 197 200 205 201 200 216 220 226 355 77 150 176 182 174 179 191 160 69 85 94 106 115 120 115 107 101 100
259 257 258 260 260 261 259 250 244 238 235 234 233 226 211 203 199 196 196 197 202 201 202 214 216 227 239 124 160 185 191 196 195 206 215 224 121 97 110 104 127 133 127 120 111
257 256 254 254 256 255 259 253 246 240 236 233 229 224 207 206 199 200 198 199 201 201 203 215 219 226 233 207 185 192 206 211 227 227 231 230 223 140 116 110 110 114 137 137 131
257 254 251 251 250 249 253 254 251 245 236 230 230 213 208 198 196 197 199 202 202 205 205 216 221 215 206 237 197 179 239 230 255 262 261 265 251 219 160 122 98 114 114 132 142
255 253 251 247 246 244 245 250 253 255 250 239 230 219 217 197 192 190 196 201 203 205 208 215 224 215 229 237 242 245 250 246 267 252 269 261 255 242 221 150 122 125 138 131 119
255 250 247 247 241 239 240 244 251 259 265 233 234 222 209 202 193 190 194 196 204 207 213 218 217 232 231 226 236 238 241 263 288 288 238 241 244 241 222 199 186 169 165 163 143
256 251 244 241 241 233 234 238 245 258 278 260 233 222 208 204 207 190 196 197 203 207 211 220 220 227 212 223 229 229 249 297 297 266 204 204 244 243 235 229 208 199 209 174 163
252 251 245 234 235 232 225 227 233 241 302 227 209 210 210 207 209 198 198 199 206 203 207 214 220 216 208 216 216 232 274 297 299 221 200 197 221 251 247 245 245 217 201 208 194
254 246 243 236 224 226 217 212 213 193 241 225 211 201 202 209 207 204 201 201 204 209 214 213 219 209 215 220 219 225 286 293 307 180 207 215 208 258 248 293 273 252 212 199 202
255 245 240 232 224 215 208 196 189 212 225 222 207 200 199 203 200 205 201 199 199 198 214 217 207 201 203 207 215 222 250 116 79 223 211 207 217 255 286 298 302 261 188 193 204
254 247 237 225 225 210 200 192 213 223 208 193 195 204 203 204 198 198 205 202 202 206 211 211 219 206 206 210 212 207 223 179 184 187 176 195 214 251 306 294 280 207 183 203 213
249 248 234 224 217 210 200 198 213 211 220 211 193 201 205 201 206 203 208 206 204 203 203 209 218 213 214 212 215 216 212 213 206 163 152 199 240 281 321 321 231 179 185 192 201
243 240 231 220 217 209 208 209 210 209 213 218 228 210 212 201 202 202 202 213 209 205 198 211 209 202 210 217 217 221 224 200 196 132 210 220 255 293 330 314 134 183 195 183 180
249 233 221 220 215 210 216 216 212 206 206 217 222 217 228 209 205 206 204 207 213 206 199 211 207 200 201 203 211 209 221 218 214 195 158 172 244 279 286 262 221 203 166 183 178
251 234 215 216 213 217 221 220 211 201 209 216 214 206 209 205 206 207 210 213 211 209 205 206 225 219 212 217 218 222 234 235 215 200 184 199 252 224 14 218 213 214 208 200 195
256 233 222 213 217 221 225 226 222 207 206 214 211 202 190 182 200 210 207 215 213 212 214 212 224 241 239 221 211 219 222 231 236 242 214 192 198 273 265 167 171 205 221 204 202
254 231 226 224 216 220 224 228 224 217 214 217 223 220 210 196 180 195 205 205 212 219 216 215 219 222 219 216 222 232 231 235 237 239 230 223 241 248 238 225 220 212 218 225 212
248 235 219 215 227 219 215 220 223 219 219 217 225 227 229 228 218 191 189 199 212 217 218 222 225 229 236 241 240 233 235 233 239 256 251 255 254 250 238 246 231 222 222 215 212
255 244 230 216 204 224 229 214 214 222 220 218 222 224 228 228 224 217 210 181 181 190 207 221 225 231 235 236 241 245 237 224 234 260 270 260 257 258 244 233 235 243 238 227 218
257 256 253 231 221 212 215 215 208 216 223 225 222 228 222 230 234 234 232 214 185 170 154 205 224 221 233 240 245 245 243 244 250 256 262 263 250 260 249 228 233 238 239 227 226
Height
3159 3159 3160 3161 3162 3164 3165 3167 3168 3170 3172 3173 3175 3177 3177 3178 3179 3180 3182 3184 3185 3186 3186 3187 3187 3189 3189 3187 3185 3185 3185 3184 3185 3184 3183 3181 3181 3179 3178 3178 3178 3179 3181 3182 3183
3157 3157 3158 3158 3159 3160 3161 3162 3164 3166 3168 3170 3172 3174 3175 3176 3178 3179 3181 3182 3184 3186 3187 3188 3189 3190 3189 3186 3185 3185 3186 3186 3187 3186 3185 3183 3183 3182 3181 3180 3180 3181 3181 3184 3185
3156 3155 3155 3156 3156 3156 3157 3158 3160 3162 3163 3165 3167 3170 3172 3174 3176 3178 3178 3180 3183 3185 3187 3189 3189 3190 3188 3185 3185 3185 3186 3187 3188 3188 3188 3186 3185 3185 3184 3183 3182 3184 3184 3185 3186
3154 3154 3153 3153 3153 3153 3154 3155 3156 3157 3159 3161 3163 3166 3168 3171 3175 3175 3176 3179 3182 3184 3187 3188 3189 3189 3188 3185 3185 3187 3187 3189 3190 3190 3189 3189 3188 3189 3188 3187 3186 3185 3187 3188 3189
3151 3151 3151 3151 3151 3151 3151 3151 3152 3153 3155 3156 3158 3161 3164 3167 3171 3172 3174 3177 3180 3184 3187 3188 3189 3189 3189 3186 3187 3188 3189 3191 3192 3192 3192 3192 3191 3192 3191 3190 3189 3189 3189 3189 3190
3148 3148 3148 3148 3148 3148 3148 3148 3149 3150 3151 3152 3154 3156 3159 3163 3167 3169 3172 3175 3178 3183 3186 3187 3188 3190 3190 3187 3189 3190 3191 3192 3194 3195 3194 3195 3193 3193 3194 3194 3193 3193 3192 3192 3192
3145 3144 3145 3145 3145 3145 3145 3145 3146 3146 3147 3148 3150 3151 3154 3161 3163 3166 3169 3173 3177 3181 3184 3186 3188 3191 3190 3189 3190 3192 3193 3195 3196 3197 3197 3198 3197 3195 3197 3196 3196 3196 3196 3195 3196
3141 3141 3141 3141 3141 3142 3141 3142 3142 3143 3144 3145 3146 3147 3150 3155 3158 3163 3167 3171 3175 3180 3183 3185 3187 3190 3191 3191 3192 3194 3197 3196 3197 3198 3200 3201 3201 3199 3199 3199 3199 3199 3199 3199 3199
3136 3137 3138 3138 3138 3139 3138 3139 3139 3139 3140 3142 3144 3144 3148 3150 3155 3160 3164 3169 3173 3177 3181 3183 3186 3189 3192 3192 3193 3195 3195 3197 3198 3199 3201 3203 3203 3203 3200 3201 3201 3201 3201 3202 3202
3130 3131 3133 3134 3135 3136 3134 3135 3135 3136 3137 3139 3141 3145 3145 3147 3152 3157 3162 3165 3169 3173 3177 3181 3184 3187 3190 3192 3192 3193 3196 3196 3197 3199 3200 3202 3204 3204 3203 3203 3204 3203 3203 3203 3203
3123 3125 3127 3129 3131 3132 3132 3132 3134 3134 3133 3136 3137 3139 3139 3143 3148 3153 3157 3161 3165 3170 3174 3177 3181 3183 3187 3191 3194 3195 3196 3196 3199 3200 3199 3200 3203 3205 3205 3203 3205 3206 3205 3205 3204
3116 3119 3121 3123 3126 3127 3127 3128 3129 3130 3130 3131 3133 3134 3137 3140 3144 3148 3153 3158 3161 3166 3170 3176 3177 3182 3186 3189 3191 3193 3194 3195 3197 3198 3199 3197 3199 3203 3205 3205 3206 3206 3207 3206 3205
3108 3111 3115 3117 3120 3123 3123 3125 3126 3126 3126 3126 3127 3130 3135 3138 3139 3144 3149 3153 3158 3162 3167 3171 3177 3178 3183 3186 3189 3190 3190 3192 3194 3194 3193 3196 3197 3198 3202 3204 3203 3205 3205 3206 3206
3101 3104 3107 3111 3117 3117 3119 3121 3123 3124 3124 3119 3121 3124 3128 3132 3135 3140 3145 3151 3154 3159 3164 3168 3172 3175 3178 3182 3186 3186 3190 3190 3188 3188 3189 3195 3195 3192 3197 3200 3201 3202 3203 3204 3205
3092 3096 3099 3104 3109 3111 3116 3118 3121 3124 3124 3114 3113 3117 3122 3127 3131 3135 3140 3145 3150 3155 3160 3164 3167 3172 3174 3178 3182 3184 3186 3184 3183 3184 3187 3191 3196 3190 3192 3192 3194 3198 3200 3202 3204
3083 3087 3091 3097 3101 3105 3110 3114 3119 3124 3114 3107 3107 3110 3116 3122 3129 3132 3136 3142 3147 3152 3155 3160 3163 3167 3172 3174 3179 3182 3184 3183 3182 3187 3189 3187 3193 3188 3189 3188 3189 3193 3197 3199 3201
3073 3078 3082 3088 3095 3098 3105 3110 3115 3109 3105 3103 3103 3105 3111 3115 3124 3126 3129 3134 3140 3147 3149 3154 3158 3162 3166 3170 3174 3178 3180 3183 3190 3190 3187 3186 3190 3186 3186 3186 3186 3189 3193 3195 3198
3063 3067 3073 3082 3084 3090 3097 3103 3098 3092 3097 3098 3100 3103 3106 3112 3119 3122 3126 3129 3135 3140 3144 3149 3155 3156 3159 3165 3171 3174 3176 3177 3185 3188 3183 3185 3184 3183 3183 3182 3181 3184 3188 3193 3195
3054 3058 3066 3072 3075 3081 3087 3086 3080 3084 3091 3096 3098 3100 3103 3108 3113 3118 3121 3124 3128 3133 3142 3144 3149 3153 3157 3162 3167 3169 3172 3175 3176 3178 3180 3181 3181 3180 3179 3178 3175 3180 3183 3187 3191
3044 3050 3057 3060 3065 3071 3074 3069 3073 3083 3088 3091 3094 3096 3097 3102 3108 3113 3117 3120 3124 3130 3137 3140 3145 3149 3153 3157 3161 3164 3169 3171 3172 3179 3181 3177 3176 3177 3177 3177 3178 3180 3182 3185 3189
3037 3041 3046 3050 3055 3059 3054 3056 3068 3078 3084 3088 3088 3092 3093 3097 3102 3106 3110 3116 3121 3127 3134 3138 3140 3145 3149 3149 3154 3159 3161 3165 3167 3169 3172 3177 3173 3174 3176 3177 3178 3179 3182 3184 3187
3029 3035 3037 3040 3047 3044 3045 3052 3062 3072 3077 3081 3085 3087 3090 3091 3097 3102 3105 3113 3117 3123 3126 3133 3138 3140 3143 3146 3150 3153 3157 3160 3162 3166 3166 3168 3170 3172 3174 3174 3176 3178 3180 3182 3185
3023 3027 3029 3032 3035 3036 3042 3047 3056 3066 3070 3075 3079 3083 3086 3089 3094 3098 3103 3112 3115 3117 3122 3129 3132 3136 3138 3142 3143 3147 3151 3154 3157 3159 3160 3164 3167 3168 3171 3173 3175 3176 3177 3180 3181
3020 3022 3023 3024 3027 3031 3035 3039 3047 3057 3063 3067 3072 3078 3082 3086 3089 3092 3100 3106 3110 3115 3120 3126 3127 3127 3127 3134 3140 3143 3146 3149 3153 3154 3156 3157 3162 3164 3167 3169 3170 3171 3173 3176 3177
3015 3015 3019 3019 3024 3026 3028 3033 3039 3046 3053 3062 3065 3069 3076 3082 3086 3090 3095 3102 3107 3109 3114 3119 3120 3125 3127 3133 3136 3139 3142 3144 3146 3150 3150 3154 3156 3159 3162 3164 3165 3168 3170 3172 3174
3012 3013 3015 3019 3019 3021 3023 3030 3034 3042 3046 3050 3056 3064 3071 3074 3081 3089 3092 3097 3100 3103 3108 3112 3114 3120 3122 3128 3130 3133 3137 3138 3141 3143 3145 3148 3150 3154 3158 3161 3163 3164 3166 3168 3170
3008 3009 3010 3014 3017 3018 3020 3025 3029 3031 3036 3041 3052 3059 3063 3070 3077 3083 3087 3089 3093 3098 3101 3105 3108 3114 3116 3123 3126 3125 3124 3131 3135 3138 3141 3141 3146 3148 3152 3156 3158 3160 3161 3164 3166